Regional Weather Roundup
Issued by NWS Wakefield, VA

Home | Current Version | Previous Version | Graphics & Text | Print | Product List | Glossary On
Versions: 1 2 3 4 5 6 7 8 9 10 11 12 13 14 15 16 17 18 19 20 21 22 23 24 25 26 27
000
ASUS41 KAKQ 161616
RWRAKQ

REGIONAL WEATHER ROUNDUP
NATIONAL WEATHER SERVICE WAKEFIELD VA
1100 AM EST SAT DEC 16 2017

Note: "fair" indicates few or no clouds below 12,000 feet with no
significant weather and/or obstructions to visibility. * = Denotes
station may not report precipitation (e.g., rain,snow,etc.),
thunder or fog.

VAZ042-051-052>054-056-161700-
NORTHERN VIRGINIA

CITY           SKY/WX    TMP DP  RH WIND       PRES   REMARKS
WASH NATIONAL  MOSUNNY   41  23  48 S14       30.16F
DULLES         MOSUNNY   38  23  55 SW16G24   30.14F
FORT BELVOIR   SUNNY     42  20  42 SW8       30.16F
QUANTICO       SUNNY     42  21  43 W15G21    30.19F
FREDERICKSBRG* MOSUNNY   40  26  56 SW10      30.19F
STAFFORD*      MOSUNNY   41  21  44 SW10G17   30.22F
WARRENTON      SUNNY     42  19  38 S14G21    30.15F
CULPEPER*      SUNNY     41  21  44 S13G18    30.17F
MANASSAS*      SUNNY     41  22  46 SW14      30.16F
LEESBURG*      SUNNY     41  27  56 SW13G20   30.12F
WINCHESTER     SUNNY     39  19  45 SW10      30.08F
FRONT ROYAL*   SUNNY     39  19  45 MISG      30.09F
LURAY*         SUNNY     41  23  48 S12G18    30.09F
$$

VAZ048-049-060>072-079>083-161700-
CENTRAL AND SOUTH CENTRAL VIRGINIA

CITY           SKY/WX    TMP DP  RH WIND       PRES   REMARKS
RICHMOND       MOSUNNY   46  22  38 SW10      30.22S
CHESTERFIELD*  NOT AVBL
PETERSBURG*    SUNNY     43  19  39 SW7       30.24S
HANOVER        SUNNY     43  20  39 S10       30.23R
TAPPAHANNOCK*  SUNNY     42  23  46 S7        30.22R
QUINTON*       FAIR      40  22  48 SW5       30.23S
CHARLOTTSVILLE SUNNY     42  21  43 S14       30.15F
GORDONSVILLE*  SUNNY     39  23  52 SW9       30.16F
ORANGE*        SUNNY     37  23  56 SW3G17    30.18S
LOUISA*        SUNNY     41  20  43 S9        30.23S
BUMPASS*       FAIR      39  20  46 SW9       30.19F
FARMVILLE*     SUNNY     42  25  50 SW7       30.21S
CREWE*         FAIR      41  22  48 SW7       30.22S
FORT PICKETT*  NOT AVBL
CHASE CITY*    FAIR      40  22  48 W6        30.24S
CLARKSVILLE*   FAIR      41  25  52 W5        30.24S
SOUTH HILL*    SUNNY     41  24  50 SW6       30.29R
LAWRENCEVILLE* FAIR      42  20  42 SW8       30.23R
EMPORIA*       SUNNY     41  21  45 MISG        N/A
$$

VAZ088>098-161700-
SOUTHEAST VIRGINIA

CITY           SKY/WX    TMP DP  RH WIND       PRES   REMARKS
NORFOLK        SUNNY     42  22  44 W3        30.23F
VIRGINIA BEACH MOSUNNY   42  22  44 W6        30.23F
NORFOLK NAVAL  SUNNY     41  22  46 W6        30.24F
WEST POINT*    SUNNY    N/A N/A N/A SW8       30.25S
SALUDA*        FAIR      41  22  46 SW6       30.22F
NEWPORT NEWS   SUNNY     42  20  41 W6        30.22F
LANGLEY AFB    SUNNY     42  20  40 CALM      30.22F
FORT EUSTIS    SUNNY     42  22  44 W5        30.20F
WILLIAMSBURG*  SUNNY     45  25  45 CALM      30.24F
HR EXEC AP*    FAIR      41  22  46 W6        30.25F
FRANKLIN*      SUNNY     40  22  49 W3        30.24F
US460-WAKEFLD  SUNNY     43  21  41 VRB7      30.23F
$$

VAZ020-022-025-037-045-161700-
WEST CENTRAL AND SOUTHWEST VIRGINIA

CITY           SKY/WX    TMP DP  RH WIND       PRES   REMARKS
STAUNTON*      SUNNY     39  20  46 SW9       30.13F
WAYNESBORO*    SUNNY     38  20  48 S13       30.12F
HOT SPRINGS VA PTSUNNY   30  20  66 W20       30.03S WCI  17
LYNCHBURG      SUNNY     41  21  44 VRB5      30.20R
DANVILLE       SUNNY     41  23  48 W6        30.24F
SOUTH BOSTON*  FAIR      42  21  43 SW8       30.25S
MARTINSVILLE   SUNNY     40  22  47 SW3       30.25S
ROANOKE        SUNNY     41  22  46 W8        30.20S
BLACKSBURG     SUNNY     37  24  58 W7        30.20R
DUBLIN*        SUNNY     37  24  60 SW13      30.18S
MARION*        SUNNY     35  20  54 W18G25    30.20S WCI  24
HILLSVILLE*    SUNNY     35  22  58 W12       30.14F
RICHLANDS*     FAIR      34  22  61 SW9       30.18S
WISE*          SUNNY     36  27  69 SW12      30.18F
ABINGDON*      SUNNY     37  24  59 W12       30.23S
$$

MDZ021>025-VAZ099-100-161700-
SOUTHERN MARYLAND AND THE DELMARVA PENINSULA

CITY           SKY/WX    TMP DP  RH WIND       PRES   REMARKS
PATUXENT RIVER MOSUNNY   41  21  44 SW16      30.18F
BAY BRIDGE APT SUNNY     39  25  56 SW10G18   30.15F
LEONARDTOWN    SUNNY     39  23  52 SW10G16   30.20S
DOVER          MOSUNNY   38  29  70 SW13      30.13F
GEORGETOWN     PTSUNNY   37  27  67 SW10      30.17F
EASTON         SUNNY     41  27  56 SW10      30.19F
CAMBRIDGE      MOSUNNY   39  25  56 SW9       30.18F
SALISBURY      MOSUNNY   41  24  51 SW14      30.18F
OCEAN CITY     MOSUNNY   41  24  51 SW12      30.19F
WALLOPS ISLAND SUNNY     43  22  43 SW14      30.21S
ACCOMACK*      SUNNY     42  22  45 W12       30.22S
$$

NCZ012>017-030>032-161700-
NORTH CENTRAL AND EASTERN NORTH CAROLINA

CITY           SKY/WX    TMP DP  RH WIND       PRES   REMARKS
ROANOKE RAPIDS FAIR      43  25  49 SW7       30.24F
RALEIGH        MOSUNNY   43  23  45 W6        30.26F
ELIZABETH CITY SUNNY     42  25  50 W5        30.25F
AHOSKIE*       SUNNY     40  24  52 CALM      30.26F
EDENTON*       SUNNY     44  24  45 N8        30.28S
CURRITUCK*     SUNNY     41  23  48 W5        30.26S
KILL DEVIL HLS SUNNY     42  21  42 CALM      30.24F
MANTEO         SUNNY     41  24  50 N6        30.26F
CAPE HATTERAS  SUNNY     45  29  53 VRB5      30.27F
TARBORO*       NOT AVBL
GOLDSBORO      SUNNY     45  22  41 NW6       30.27F
WASHINGTON     SUNNY     43  23  45 NW5       30.29S
GREENVILLE     SUNNY     43  23  45 NW5       30.29S
NEW BERN       SUNNY     43  24  47 N8        30.30F
WILMINGTON     SUNNY     45  22  40 VRB3      30.31F
$$

VAZ048-161700-
ELSEWHERE

CITY           SKY/WX    TMP DP  RH WIND       PRES   REMARKS
HARRISBURG PA  PTSUNNY   36  23  59 SW13      30.05F
BALTIMORE      MOSUNNY   38  23  55 SW7G17    30.13F
ANNAPOLIS      SUNNY     39  23  52 SW6G20    30.15F
ANDREWS AFB    SUNNY     40  22  49 SW12      30.15S
PHILADELPHIA   MOSUNNY   34  25  69 W16       30.12F WCI  24
HENDERSON NC   SUNNY     40  20  45 W6        30.24S
GREENSBORO     MOSUNNY   42  21  43 W9        30.24S
ROCKY MOUNT    SUNNY     43  22  43 NW7       30.27F
$$

VAZ100-161700-
MARINE

STATION/POSITION TIME  TEMP    WIND        PRES    WAVE   SWELL
                       AIR SEA DIR/SP/G            HT/PER HT/PER
                 (UTC) (F)     (DEG/KT/KT) (MB)    (FT/S) (FT/S)
15NM E FENWICK I 1550   40 51  250/ 17/ 19 1022.1F   2/ 3
OCEAN-CITY-INLET 1542   40 45  270/ 11/ 14 1022.5F
THOMAS POINT MD  1600   38 42  230/ 17/ 19   N/A
GOOSES REEF MD   1600   40 44  230/ 14/ 17 1022.1    1/ 2
SOLOMONS ISLAND  1542   41 44  230/ 13/ 16 1021.7S
PINEY POINT MD   1542          270/  6/  9   N/A
POTOMAC MD       1600   40 45  240/ 12/ 14 1022.1    1/ 2
CAMBRIDGE MD     1536   40 39              1022.5F
LEWISETTA VA     1542   39 39  270/ 10/ 13 1022.9F
RAPPAHANNOCK LGT 1542          240/ 12/ 14 1023.8F
STINGRAY PT      1600   40 45  260/  8/ 10 1023.4    1
YORK RVR RNG VA  1542   41     270/  7/  9 1024.3F
JAMESTOWN VA     1600      44   10/  2/  2   N/A     0
DOMINION TERM VA 1548   37     290/  3/  5 1024.2F
CAPE HENRY VA    1548   40     270/  6/  8   N/A
CAPE HENRY BUOY  1600      52                N/A     2/ 7
1ST LANDING BUOY 1600   39 49  270/  6/ 10 1023.9    1/ 3
CAPE CHARLES BUO 1551      51                N/A     2/ 7
64NM E OF VA BCH 1550   44 57  330/ 10/ 16 1024.2F   5/ 7   5/ 7
44100 DUCK FRF   1545      54                N/A     3/ 7
44056 DUCK FRF   1600      54                N/A     3/ 6
DIAMOND SHLS NC  1600   44 72  340/ 10/ 16 1025.0
CAPE LOOKOUT NC  1600          340/  7/ 10 1026.1S
$$




USA.gov is the U.S. government's official web portal to all federal, state and local government web resources and services.